Printer-friendly version
Follow the MPC on Twitter Follow the MPC on Facebook The MPC blog
Minor Planet Center

MPEC 2004-E11 : 2000 EV70

The following Minor Planet Electronic Circular may be linked-to from your own Web pages, but must not otherwise be redistributed electronically.

A form allowing access to any MPEC is at the bottom of this page.


Read MPEC 2004-E10 Read MPEC 2004-E12


M.P.E.C. 2004-E11                                Issued 2004 Mar. 2, 12:34 UT

     The Minor Planet Electronic Circulars contain information on unusual
         minor planets and routine data on comets.  They are published
   on behalf of Commission 20 of the International Astronomical Union by the
          Minor Planet Center, Smithsonian Astrophysical Observatory,
                          Cambridge, MA 02138, U.S.A.

         Supported in part by the Steven and Michele Kirsch Foundation
             Prepared using the Tamkin Foundation Computer Network

                              MPC@CFA.HARVARD.EDU
          URL http://cfa-www.harvard.edu/iau/mpc.html  ISSN 1523-6714

                                   2000 EV70

                           Revision to MPEC 2000-E56

Additional Observations:
     K00E70V tC2004 03 01.45104 16 11 37.59 -13 30 47.2                 EE011691
     K00E70V tC2004 03 01.45891 16 11 33.23 -13 30 32.5                 EE011691
     K00E70V tC2004 03 01.46681 16 11 28.93 -13 30 18.3                 EE011691
     K00E70V bC2004 03 02.18374 16 05 11.32 -13 08 22.9          18.7 R EE011J95
     K00E70V bC2004 03 02.20353 16 05 00.61 -13 07 45.4          18.4 R EE011J95

Observer details:
691 Steward Observatory, Kitt Peak.  Observers M. Block, P. B. Lake.  0.9-m
    f/3 reflector + CCD.
J95 Great Shefford.  Observer P. Birtwhistle.  0.30-m f/6.3 Schmidt-Cassegrain
    + CCD.

First and last observations above in comparison with prediction:
Residuals in seconds of arc (or two decimals in degrees), reference and Delta-T
040301 691 0.45- 0.10-    040302 J95 0.38- 0.12-    MPO 57761   -0.28 day

Orbital elements:
2000 EV70                                                            PHA 0.017
Epoch 2004 July 14.0 TT = JDT 2453200.5                 MPC
M 144.35366              (2000.0)            P               Q
n   0.74249824     Peri.  314.95202     +0.44731663     -0.89407846
a   1.2078299      Node   108.46363     +0.82726421     +0.40381669
e   0.5311623      Incl.    1.39278     +0.33991435     +0.19379316
P   1.33           H   20.3           G   0.15           U   4
Residuals in seconds of arc
000308 704  0.3-  0.5+    000311 046  0.1+  0.3-    000315 699  0.1+  0.1-
000308 704  0.0   0.2+    000311 046  0.2-  0.2-    000315 699  0.2+  0.1-
000308 704  0.2+  0.1-    000312 858  0.4-  0.7-    000315 699  0.3-  0.2+
000308 704  0.3-  0.3+    000312 858  0.3+  0.3-    000315 699  0.1+  0.1-
000308 704  0.6-  0.4+    000312 858  0.4-  0.6-    000318 670  0.4-  0.5+
000309 704  0.0   0.3+    000312 858  0.5-  0.6-    000318 670  1.0-  1.3-
000309 704  0.0   0.4+    000312 704  0.8+  0.3-    000318 670  0.6-  0.2-
000309 704  0.3+  0.1+    000312 704  0.6+  0.1+    000322 118  0.0   0.1-
000309 704  0.4+  0.3+    000312 704  0.5+  0.1+    000322 118  0.8+  0.1-
000309 587  0.2+  0.0     000312 704 (3.3-  0.3-)   000322 046  0.6+  0.4-
000309 587  0.9-  0.8+    000312 704  0.5+  0.6+    000322 046  0.2+  0.5+
000309 587  0.1+  1.5-    000312 670  0.8+  0.3+    000322 046  0.0   0.2-
000309 620  0.1-  0.8+    000312 345  1.0+  0.5-    000322 046  0.7-  0.0
000309 620  0.0   0.6+    000312 345  0.9-  0.2+    000323 670  1.2+  1.0-
000309 620  0.2+  0.3+    000312 345  1.5-  0.2+    000323 670  0.0   1.1-
000309 620  0.2+  0.1+    000312 345  0.7-  0.0     000323 931 (2.5+  2.8-)
000310 704  0.2+  0.3+    000312 345 (3.8-  0.4+)   000323 931 (2.0+  2.9-)
000310 704  0.2-  0.4+    000312 345  0.7+  1.0-    000325 360  0.2-  0.1-
000310 704  0.1+  0.1+    000312 151  1.3-  0.3+    000325 360  0.1-  0.3+
000310 704  0.2+  0.4+    000312 151  1.2+  0.2+    000325 360  0.1+  0.0
000310 704  0.1+  0.7+    000312 151  1.3+  0.6+    000326 699  0.0   0.1+
000310 704  0.0   0.5+    000312 151  0.3-  0.0     000326 699  0.6+  0.1+
000310 704  0.2+  0.2+    000312 151  0.6-  0.1+    000326 699  0.4+  0.1+
000310 704  0.6-  0.1+    000312 151  1.0-  0.6-    000326 699  0.1+  0.4+
000310 704  0.3+  0.2+    000313 104  0.4-  0.4-    000406 360  0.5+  0.3-
000310 704  0.2+  0.6+    000313 104  0.1-  0.6-    000406 360  0.1-  0.5+
000311 461  0.4+  0.7-    000313 104  0.3-  0.6-    000406 360  0.1-  0.4+
000311 461  1.5-  1.4-    000313 704  0.1+  0.2+    000407 608  0.7+  0.5+
000311 461  0.8+  0.2+    000313 704  0.3+  0.0     000422 540  1.4-  0.3-
000311 858  0.2+  0.1-    000313 704  0.3+  0.1+    000422 540  0.7-  0.6+
000311 858  0.1+  0.0     000313 704  0.4+  0.2+    000422 540 (2.0-  0.9+)
000311 858  0.1-  0.1-    000313 704  0.9+  0.5+    000423 540  0.1+  1.3+
000311 670  0.1+  0.3+    000313 413  0.2+  0.0     000423 540  0.5-  0.2+
000311 670  0.1+  0.3-    000313 413  0.1+  0.1-    000423 540  0.0   0.5+
000311 670  1.7-  0.4-    000314 355  0.5-  0.1-    040301 691  1.2+  1.2-
000311 046  0.6+  0.2-    000314 355  0.1+  0.1+    040301 691  0.0   0.6-
000311 046  0.6+  0.3-    000314 355  0.3-  0.6+    040301 691  0.1-  0.6-
000311 046  0.7+  0.3-    000314 900  0.6-  0.3-    040302 J95  0.1+  0.2-
000311 046  0.8+  0.1+    000314 900  1.0-  0.1+    040302 J95  0.8-  0.4+

Ephemeris:
2000 EV70                a,e,i = 1.21, 0.53, 1                   q = 0.5663
Date    TT    R. A. (2000) Decl.     Delta      r     Elong.  Phase     V
2004 02 25    16 59.83   -15 57.6    0.170    0.976    80.3    89.8    19.6
2004 03 06    15 32.33   -11 02.5    0.174    1.069   112.0    59.3    18.8
2004 03 16    14 14.83   -05 19.3    0.200    1.159   141.7    32.1    18.5
2004 03 26    13 16.31   -00 42.9    0.251    1.242   166.0    11.2    18.5
2004 04 05    12 38.03   +02 05.0    0.323    1.320   170.5     7.2    19.0
2004 04 15    12 15.63   +03 25.5    0.413    1.392   156.5    16.7    20.0
2004 04 25    12 04.33   +03 47.5    0.518    1.458   144.2    23.8    20.8
2004 05 05    12 00.63   +03 31.4    0.635    1.519   133.9    28.6    21.5
2004 05 15    12 02.08   +02 50.6    0.760    1.574   124.8    31.8    22.0

Kyle E. Smalley              (C) Copyright 2004 MPC           M.P.E.C. 2004-E11

Read MPEC 2004-E10 Read MPEC 2004-E12


MPEC number:

Enter an MPEC number in one of the following forms:

  • 1997-B01 (the full form)
  • J97B01 (the packed version of the full form)
  • B01 (the abbreviated form)

Valid HTML 4.01!